Cannes, France

12:34 AM CEST on April 30, 2017 (GMT +0200)
Mandelieu

Weather History for LFMD - March, 2014

Change the Weather History Date:

Thursday, March 6, 2014

  Actual Average Record
Temperature  
Mean Temperature 53 °F -  
Max Temperature 66 °F 58 °F 66 °F (2014)
Min Temperature 40 °F 45 °F 30 °F (2005)
Degree Days  
Heating Degree Days 12    
Growing Degree Days 3 (Base 50)    
Moisture  
Dew Point 36 °F    
Average Humidity 54    
Maximum Humidity 81    
Minimum Humidity 14    
Precipitation  
Precipitation 0.00 in - - ()
Sea Level Pressure  
Sea Level Pressure 30.08 in    
Wind  
Wind Speed 4 mph ()    
Max Wind Speed 9 mph    
Max Gust Speed -    
Visibility 7.0 miles    
Events      
Averages and records for this station are not official NWS values.
T = Trace of Precipitation, MM = Missing Value Source: Averaged Metar Reports

Daily Weather History Graph

Daily Weather History Graph

Search for Another Location

Airport or City:

Trip Planner

Search our weather history database for the weather conditions in past years. The results will help you decide how hot, cold, wet, or windy it might be!

Date:

Astronomy

Mar. 06, 2014 Rise Set
Actual Time 7:00 AM CET 6:27 PM CET
Civil Twilight 6:32 AM CET 6:55 PM CET
Nautical Twilight 5:58 AM CET 7:28 PM CET
Astronomical Twilight 5:25 AM CET 8:02 PM CET
Moon 9:46 AM CET (3/6) No Moon Set
Length of Visible Light 12h 23m
Length of Day
11h 26m
Waxing Crescent, 30% of the Moon is Illuminated
Mar 6
Waxing Crescent
Mar 8
First Quarter
Mar 16
Full
Mar 24
Last Quarter
Mar 30
New

Hourly Weather History & Observations

Time (CET) Temp. Windchill Dew Point Humidity Pressure Visibility Wind Dir Wind Speed Gust Speed Precip Events Conditions
12:00 AM 44 °F - 37 °F 67% 30.01 in 17 mi North 3.5 mph - -   Clear
12:00 AM 44.6 °F 43.1 °F 37.4 °F 76% 29.98 in 6.2 mi North 3.5 mph - N/A   Unknown
12:30 AM 44.6 °F 40.7 °F 37.4 °F 76% 30.01 in 6.2 mi North 6.9 mph - N/A   Unknown
1:00 AM 44 °F - 36 °F 65% 30.01 in 17 mi North 4.6 mph - -   Clear
1:00 AM 44.6 °F 42.2 °F 35.6 °F 71% 30.01 in 6.2 mi North 4.6 mph - N/A   Unknown
1:30 AM 44.6 °F 41.4 °F 35.6 °F 71% 30.01 in 6.2 mi North 5.8 mph - N/A   Unknown
2:00 AM 43 °F - 36 °F 67% 30.01 in 25 mi NNW 3.5 mph - -   Clear
2:00 AM 42.8 °F 41.1 °F 35.6 °F 76% 30.01 in 6.2 mi Variable 3.5 mph - N/A   Unknown
2:30 AM 42.8 °F 39.3 °F 35.6 °F 76% 29.98 in 6.2 mi North 5.8 mph - N/A   Unknown
3:00 AM 43 °F - 35 °F 64% 30.00 in 31 mi North 3.5 mph - -   Clear
3:00 AM 42.8 °F 41.1 °F 35.6 °F 76% 29.98 in 6.2 mi North 3.5 mph - N/A   Unknown
3:30 AM 41.0 °F 38.0 °F 35.6 °F 81% 29.98 in 6.2 mi North 4.6 mph - N/A   Unknown
4:00 AM 41.0 °F 38.0 °F 35.6 °F 81% 29.98 in 6.2 mi North 4.6 mph - N/A   Unknown
4:30 AM 41.0 °F 39.0 °F 35.6 °F 81% 29.98 in 6.2 mi North 3.5 mph - N/A   Unknown
5:00 AM 42 °F - 36 °F 70% 30.01 in 22 mi North 3.5 mph - -   Clear
5:00 AM 42.8 °F 41.1 °F 35.6 °F 76% 29.98 in 6.2 mi North 3.5 mph - N/A   Unknown
5:30 AM 41.0 °F 38.0 °F 35.6 °F 81% 30.01 in 6.2 mi North 4.6 mph - N/A   Unknown
6:00 AM 42 °F - 36 °F 70% 30.02 in 22 mi North 4.6 mph - -   Clear
6:00 AM 41.0 °F 38.0 °F 35.6 °F 81% 30.01 in 6.2 mi North 4.6 mph - N/A   Unknown
6:30 AM 42.8 °F 41.1 °F 35.6 °F 76% 30.01 in 6.2 mi Variable 3.5 mph - N/A   Unknown
7:00 AM 43 °F - 36 °F 68% 30.04 in 22 mi North 4.6 mph - -   Clear
7:00 AM 42.8 °F 40.1 °F 35.6 °F 76% 30.04 in 6.2 mi North 4.6 mph - N/A   Unknown
7:30 AM 44.6 °F 43.1 °F 37.4 °F 76% 30.04 in 6.2 mi North 3.5 mph - N/A   Unknown
8:00 AM 46 °F - 37 °F 62% 30.06 in 22 mi North 4.6 mph - -   Clear
8:00 AM 46.4 °F 44.3 °F 37.4 °F 71% 30.04 in 6.2 mi North 4.6 mph - N/A   Unknown
8:30 AM 48.2 °F - 37.4 °F 66% 30.06 in 6.2 mi North 3.5 mph - N/A   Unknown
9:00 AM 52 °F - 39 °F 50% 30.08 in 22 mi North 2.3 mph - -   Clear
9:00 AM 51.8 °F - 39.2 °F 62% 30.06 in 6.2 mi Variable 2.3 mph - N/A   Unknown
9:30 AM 55.4 °F - 41.0 °F 58% 30.06 in 6.2 mi Variable 2.3 mph - N/A   Unknown
10:00 AM 59 °F - 40 °F 38% 30.09 in 22 mi North 2.3 mph - -   Clear
10:00 AM 59.0 °F - 41.0 °F 51% 30.06 in 6.2 mi Variable 2.3 mph - N/A   Unknown
10:30 AM 62.6 °F - 42.8 °F 48% 30.09 in 6.2 mi Variable 3.5 mph - N/A   Unknown
11:00 AM 64 °F - 35 °F 22% 30.10 in 31 mi ENE 3.5 mph - -   Clear
11:00 AM 64.4 °F - 33.8 °F 32% 30.09 in 6.2 mi Variable 3.5 mph - N/A   Unknown
11:30 AM 66.2 °F - 30.2 °F 26% 30.09 in 6.2 mi ENE 8.1 mph - N/A   Unknown
12:00 PM 66 °F - 29 °F 14% 30.11 in 31 mi ENE 5.8 mph - -   Clear
12:00 PM 66.2 °F - 28.4 °F 24% 30.09 in 6.2 mi ENE 5.8 mph - N/A   Unknown
12:30 PM 66.2 °F - 35.6 °F 32% 30.09 in 6.2 mi SSE 9.2 mph - N/A   Unknown
1:00 PM 65 °F - 36 °F 23% 30.11 in 25 mi SSE 9.2 mph - -   Clear
1:00 PM 64.4 °F - 35.6 °F 34% 30.09 in 6.2 mi SSE 9.2 mph - N/A   Unknown
1:30 PM 64.4 °F - 35.6 °F 34% 30.09 in 6.2 mi South 9.2 mph - N/A   Unknown
2:00 PM 64 °F - 38 °F 27% 30.10 in 28 mi South 6.9 mph - -   Clear
2:00 PM 64.4 °F - 39.2 °F 40% 30.09 in 6.2 mi South 6.9 mph - N/A   Unknown
2:30 PM 64.4 °F - 37.4 °F 37% 30.09 in 6.2 mi South 8.1 mph - N/A   Unknown
3:00 PM 64 °F - 37 °F 25% 30.10 in 34 mi SSW 5.8 mph - -   Clear
3:00 PM 64.4 °F - 37.4 °F 37% 30.09 in 6.2 mi SSW 5.8 mph - N/A   Unknown
3:30 PM 64.4 °F - 35.6 °F 34% 30.09 in 6.2 mi South 4.6 mph - N/A   Unknown
4:00 PM 64 °F - 37 °F 25% 30.10 in 37 mi South 4.6 mph - -   Clear
4:00 PM 64.4 °F - 37.4 °F 37% 30.09 in 6.2 mi South 4.6 mph - N/A   Unknown
4:30 PM 62.6 °F - 35.6 °F 37% 30.09 in 6.2 mi South 5.8 mph - N/A   Unknown
5:00 PM 62 °F - 37 °F 27% 30.11 in 34 mi South 4.6 mph - -   Clear
5:00 PM 62.6 °F - 37.4 °F 39% 30.09 in 6.2 mi South 4.6 mph - N/A   Unknown
5:30 PM 60.8 °F - 37.4 °F 42% 30.09 in 6.2 mi South 3.5 mph - N/A   Unknown
6:00 PM 59.0 °F - 33.8 °F 39% 30.09 in 6.2 mi WNW 2.3 mph - N/A   Unknown
6:30 PM 55.4 °F - 35.6 °F 47% 30.09 in 6.2 mi Variable 2.3 mph - N/A   Unknown
7:00 PM 53 °F - 36 °F 40% 30.14 in 17 mi North 3.5 mph - -   Clear
7:00 PM 53.6 °F - 35.6 °F 51% 30.12 in 6.2 mi North 3.5 mph - N/A   Unknown
7:30 PM 51.8 °F - 35.6 °F 54% 30.12 in 6.2 mi North 3.5 mph - N/A   Unknown
8:00 PM 50 °F - 36 °F 48% 30.16 in 17 mi North 3.5 mph - -   Clear
8:00 PM 50.0 °F - 35.6 °F 58% 30.15 in 6.2 mi Variable 3.5 mph - N/A   Unknown
8:30 PM 50.0 °F - 35.6 °F 58% 30.15 in 6.2 mi Variable 2.3 mph - N/A   Unknown
9:00 PM 49 °F - 36 °F 49% 30.17 in 22 mi North 2.3 mph - -   Clear
9:00 PM 48.2 °F - 35.6 °F 62% 30.15 in 6.2 mi Variable 2.3 mph - N/A   Unknown
9:30 PM 48.2 °F - 35.6 °F 62% 30.15 in 6.2 mi Variable 3.5 mph - N/A   Unknown
10:00 PM 47 °F - 35 °F 53% 30.18 in 28 mi NNW 4.6 mph - -   Clear
10:00 PM 46.4 °F 44.3 °F 35.6 °F 66% 30.15 in 6.2 mi Variable 4.6 mph - N/A   Unknown
10:30 PM 48.2 °F - 33.8 °F 58% 30.18 in 6.2 mi North 5.8 mph - N/A   Unknown
11:00 PM 46 °F - 35 °F 54% 30.19 in 22 mi NNE 3.5 mph - -   Clear
11:00 PM 46.4 °F 45.2 °F 35.6 °F 66% 30.18 in 6.2 mi NNE 3.5 mph - N/A   Unknown
11:30 PM 46.4 °F 45.2 °F 33.8 °F 62% 30.18 in 6.2 mi North 3.5 mph - N/A   Unknown